Location: Prospect Heights
(42.6173°N, 73.7396°W)
Time: 12:18:41
(UTC+00:00)

Daily predictions for brighter satellites

Satellite Brightness Start Highest point End
(mag) Time Altitude Azimuth Time Altitude Azimuth Time Altitude Azimuth
USA 234 3.6 21:40:02 10° NE 21:46:27 56° SE 21:52:51 10° SSW
Cosmos 2279 Rocket 4.2 21:42:12 10° N 21:48:19 53° ENE 21:54:21 10° SSE
Cosmos 1437 Rocket 2.9 21:45:44 10° N 21:49:19 44° ENE 21:52:55 10° SSE
NOSS 2-1 (D) 4.5 21:47:48 10° NW 21:52:19 71° SW 21:58:54 10° SSE
Aureole 3 Rocket 2.9 21:50:04 10° N 21:54:48 90° E 21:58:19 10° S
Cosmos 1825 Rocket 4.2 21:50:52 10° NNW 21:55:08 61° W 21:59:23 10° S
CZ-2C R/B 2.5 21:52:03 10° SSE 21:55:31 60° ENE 21:59:03 10° N
USA 305 4.3 21:56:56 10° NNW 21:59:41 18° NNE 22:02:27 10° ENE
CZ-2C R/B 2.8 21:58:15 10° SW 21:59:44 14° S 22:01:13 10° SSE
SL-8 R/B 4.2 21:56:25 10° WNW 22:00:59 43° N 22:05:34 10° E
SJ-11-01 4.4 21:56:28 10° SSE 22:01:08 84° W 22:05:48 10° NNW
Cosmos 2151 3.0 21:57:07 10° N 22:01:21 61° E 22:05:33 10° SSE
Cosmos 1812 4.1 21:59:53 10° SE 22:02:26 18° E 22:05:01 10° NE
Helios 1B rocket 2.7 21:59:29 10° S 22:03:23 71° WSW 22:07:20 10° NNW
Cosmos 2292 Rocket 4.5 21:59:30 10° S 22:04:53 85° E 22:11:59 10° N
Cosmos 1238 Rocket 4.3 22:02:13 10° SSW 22:05:51 34° W 22:09:01 10° NNW
CZ-4B R/B 3.9 22:02:36 10° SE 22:06:02 44° ENE 22:09:29 10° N
Nadezhda 4 Rocket 4.5 22:00:32 10° SSE 22:06:06 37° E 22:11:39 10° NNE
NOSS 8 (A) 4.5 22:04:31 10° SSW 22:08:41 86° SE 22:11:52 10° NE
BREEZE-M DEB (TANK) 1.7 22:07:32 10° W 22:09:28 38° NNW 22:11:08 13° NE
Cosmos 2263 Rocket 2.2 22:04:56 10° S 22:10:25 66° ESE 22:15:57 10° NNE
Cosmos 1844 Rocket 4.4 22:10:06 10° ESE 22:12:24 13° E 22:14:03 11° ENE
Meteor 1-31 Rocket 2.7 22:09:17 10° SSE 22:12:52 55° ENE 22:16:31 10° N
Cosmos 2227 Rocket 3.4 22:08:15 10° SW 22:13:34 42° WNW 22:18:56 10° NNE
Cosmos 1544 2.9 22:14:18 10° NNW 22:17:32 76° W 22:20:47 10° S
Radarsat 4.5 22:14:33 10° SSE 22:19:43 74° ENE 22:24:55 10° N
CORIOLIS 4.1 22:14:33 10° SSE 22:19:53 81° ENE 22:25:16 10° NNW
Lacrosse 4 Rocket 2.7 22:17:00 10° N 22:20:23 22° NE 22:22:58 13° E
Tiangong -0.1 22:18:20 10° W 22:21:03 26° SSW 22:23:45 10° SE
CZ-4B R/B 3.8 22:16:30 10° SE 22:21:17 42° ENE 22:25:59 10° N
ERS-2 4.4 22:19:34 10° SSW 22:21:59 23° W 22:24:25 10° NW
Cosmos 1782 4.3 22:20:13 10° SE 22:22:43 17° E 22:23:22 16° ENE
Cosmos 2251 Rocket 4.4 22:19:34 10° N 22:24:04 27° ENE 22:28:34 10° ESE
Cosmos 407 Rocket 4.4 22:23:34 10° N 22:27:52 26° ENE 22:32:07 10° ESE
USA 308 1.8 22:26:48 10° WNW 22:28:41 43° SW 22:29:56 14° SSE
Cosmos 2344 3.8 22:22:39 10° S 22:30:07 48° ESE 22:36:11 14° NE
USA 307 3.5 22:34:00 10° NW 22:37:29 31° NNE 22:38:51 24° ENE
Cosmos 1076 Rocket 4.0 22:33:55 10° NNW 22:38:14 63° W 22:42:30 10° S
Cosmos 1818 4.2 22:34:33 10° S 22:39:27 36° ESE 22:42:24 21° ENE
Cosmos 1812 Rocket 3.8 22:35:21 10° SSE 22:39:27 45° E 22:43:37 10° NNE
SL-16 R/B 3.0 22:34:32 10° NNW 22:40:05 55° WSW 22:45:34 10° S
ATLAS CENTAUR R/B 3.0 22:37:41 10° NW 22:42:06 51° NE 22:50:34 10° ESE
Cosmos 1602 3.5 22:39:45 10° N 22:43:29 82° E 22:47:13 10° S
ISS -3.6 22:42:45 10° NW 22:46:02 53° NNE 22:47:13 33° E
Cosmos 1666 2.7 22:42:42 10° NNW 22:46:13 70° W 22:49:43 10° S
Meteor 2-2 Rocket 4.4 22:42:57 10° SSE 22:48:29 52° E 22:54:07 10° NNE
ATLAS 2AS CENTAUR R/B 3.7 22:45:09 10° NNW 22:50:42 25° NNE 22:52:39 22° ENE
SL-08 R/B 3.6 22:50:45 20° NE 22:53:34 42° E 22:57:57 10° S
Cosmos 1943 3.2 22:48:23 10° NNW 22:53:58 60° ENE 22:59:32 10° SE
Cosmos 44 3.8 22:50:03 10° NW 22:55:23 69° WSW 23:00:27 10° SSE
ADEOS 3.7 22:53:29 10° SE 22:58:28 48° ENE 23:03:28 10° N
USA 306 3.8 23:00:49 10° NW 23:01:21 15° NW 23:01:21 15° NW
Cosmos 1023 Rocket 4.3 23:00:59 10° NNW 23:06:10 78° ENE 23:11:15 10° SSE
COSMO-SKYMED 1 2.4 23:03:34 13° NNE 23:07:23 85° E 23:11:44 10° SSW
Cosmos 1933 3.3 23:08:15 10° S 23:12:09 55° E 23:12:16 54° E
USA 276 3.2 23:09:54 10° W 23:11:36 31° WNW 23:11:36 31° WNW
Helios 1A 3.8 23:10:16 10° N 23:14:17 48° WNW 23:18:16 10° SW
Cosmos 1844 4.2 23:09:19 10° S 23:14:37 38° ESE 23:15:14 37° E
Meteor 1-25 Rocket 4.1 23:09:29 10° N 23:15:12 86° ENE 23:20:47 10° S
Cosmos 1420 Rocket 4.4 23:12:27 10° S 23:17:14 40° ESE 23:17:14 40° ESE
Radarsat Rocket 4.0 23:14:30 10° SSE 23:20:19 81° WSW 23:26:19 10° NNW
Lacrosse 5 2.1 23:17:22 10° SSW 23:22:12 48° SE 23:22:38 47° ESE
Cosmos 1553 Rocket 4.3 23:18:55 10° N 23:32:20 - SSE 23:24:53 42° ENE
Cosmos-2242 4.3 23:22:49 10° SSW 23:26:54 40° WNW 23:31:01 10° N
Meteor 1-26 Rocket 4.2 23:22:30 10° S 23:27:50 55° E 23:28:49 48° ENE
USA 234 3.8 23:25:42 25° NNE 23:29:24 50° NNW 23:35:39 10° WSW
Cosmos 1140 Rocket 3.8 23:27:23 10° NNW 23:32:31 65° WSW 23:37:34 10° S
Cosmos 2026 Rocket 4.0 23:28:00 10° S 23:34:14 87° W 23:40:36 10° N
USA 305 3.7 23:31:21 10° NW 23:33:52 37° NNW 23:33:52 37° NNW
Cosmos 2221 3.9 23:32:48 10° S 23:34:42 26° S 23:34:42 26° S
SL-8 R/B 3.6 23:38:59 10° WNW 23:43:40 85° W 23:43:40 85° W
Cosmos 1092 Rocket 4.2 23:41:49 10° SSW 23:47:54 66° W 23:54:02 10° N
Cosmos 2263 Rocket 4.3 23:50:41 10° W 23:54:50 21° NW 23:59:00 10° N
